(444030) = 2004 NT33

Discovered at Palomar on 2004-07-13 by Palomar.

Orbit

Orbit type: Distant object

Note: WebGL enabled browser required.

epoch2023-09-13.0
epoch JD2460200.5
perihelion date1986-03-08.92805
perihelion JD2446498.42805
argument of perihelion (°)40.18517
ascending node (°)241.15650
inclination (°)31.20841
eccentricity0.1522421
perihelion distance (AU)37.0694885
Tisserand w.r.t. Jupiter5.0
ΔV w.r.t. Earth (km/sec)14.8
semimajor axis (AU)43.7265034
mean anomaly (°)46.70603
mean daily motion (°/day)0.00340870
aphelion distance (AU)50.384
period (years)289
P-vector [x]0.11486690
P-vector [y]-0.99122989
P-vector [z]-0.06533690
Q-vector [x]0.88363270
Q-vector [y]0.07190419
Q-vector [z]0.46262624
absolute magnitude4.42
phase slope0.15
uncertainty2
referenceMPEC 2024-C06
observations used219
oppositions18
arc length (days)15113
first opposition used1982
last opposition used2023
residual rms (arc-secs)0.59
perturbers coarse indicatorM-v
perturbers precise indicator003Ek
first observation date used1982-08-10.0
last observation date used2023-12-26.0
computer nameMPCLINUX
JD of orbit computation2457282.553432
perihelion JD uncertainty (days)1.8864E+00
argument of perihelion uncertainty (°)8.9365E-03
ascending node uncertainty (°)1.4210E-04
inclination uncertainty (°)3.1137E-05
eccentricity uncertainty 4.9782E-05
perihelion distance uncertainty (AU)7.1277E-04
Minimum Orbit Intersection Distances (in AU)
for orbit epoch: 2460200.5, reference: E2023-Y93
Mercury36.6486
Venus36.3885
Earth36.1104
Mars35.7101
Jupiter32.0779
Saturn27.4223
Uranus18.6433
Neptune7.36497

Observations

231 total observations over interval: 1982 08 10.46590 – 2023 12 26.245090
These data are available for download (format description).

Date (UT) J2000 RA J2000 Dec Magn Location Ref
1982 08 10.46590 17 59 13.41 -06 15 39.2   260 – Siding Spring Observatory-DSS MPS 292600
1984 08 01.48248 18 12 20.69 -04 37 38.9   260 – Siding Spring Observatory-DSS MPS 292600
1987 07 31.53639 18 31 17.03 -02 10 37.5   260 – Siding Spring Observatory-DSS MPS 292600
1988 05 22.41875 18 43 19.84 -01 27 03.1   261 – Palomar Mountain-DSS MPS 292600
1990 08 19.19271 18 48 39.00 +00 10 35.9   261 – Palomar Mountain-DSS MPS 292600
1995 08 16.19132 19 19 46.75 +04 15 27.2   261 – Palomar Mountain-DSS MPS 292600
2004 07 13.23447 20 18 14.40 +11 23 28.3 20.0 R 644 – Palomar Mountain/NEAT MPS 214433
2004 07 13.31098 20 18 13.99 +11 23 28.7 20.2 R 644 – Palomar Mountain/NEAT MPS 214433
2004 07 13.37774 20 18 13.64 +11 23 28.7 21.0 R 644 – Palomar Mountain/NEAT MPS 214433
2005 07 03.28159 20 25 15.99 +12 06 21.3 20.9 R 644 – Palomar Mountain/NEAT MPS 214433
2005 07 03.34472 20 25 15.69 +12 06 21.8 20.9 R 644 – Palomar Mountain/NEAT MPS 214433
2005 07 03.40946 20 25 15.37 +12 06 22.3 20.7 R 644 – Palomar Mountain/NEAT MPS 214433
2005 07 04.33496 20 25 10.99 +12 06 30.0 20.5 R 644 – Palomar Mountain/NEAT MPS 214433
2005 07 04.40817 20 25 10.63 +12 06 30.6 21.2 R 644 – Palomar Mountain/NEAT MPS 214433
2005 07 04.47083 20 25 10.33 +12 06 30.9 20.9 R 644 – Palomar Mountain/NEAT MPS 214433
2005 07 29.37692 20 23 02.87 +12 05 00.3   644 – Palomar Mountain/NEAT MPS 214433
2005 07 30.29105 20 22 58.05 +12 04 45.2   644 – Palomar Mountain/NEAT MPS 214433
2006 09 14.15108 20 25 44.36 +12 24 32.7   644 – Palomar Mountain/NEAT MPS 214433
2006 09 15.12120 20 25 41.31 +12 23 51.2   644 – Palomar Mountain/NEAT MPS 214433
2006 09 16.31170 20 25 37.62 +12 22 59.6   644 – Palomar Mountain/NEAT MPS 214433
2008 06 26.59851 20 44 18.59 +14 10 43.7 20.0 R F65 – Haleakala-Faulkes Telescope North MPS 252031
2008 06 26.60053 20 44 18.56 +14 10 43.5 19.8 R F65 – Haleakala-Faulkes Telescope North MPS 252031
2008 09 08.84737 20 38 23.15 +13 52 15.6 20.5 V A74 – Bergen-Enkheim Observatory MPS 255835
2008 09 08.85911 20 38 23.06 +13 52 15.1 20.3 V A74 – Bergen-Enkheim Observatory MPS 255835
2008 09 08.86935 20 38 22.98 +13 52 14.4 19.9 V A74 – Bergen-Enkheim Observatory MPS 255835
2010 07 07.95559 20 55 56.13 +15 33 19.0 20.3 V A74 – Bergen-Enkheim Observatory MPS 337316
2010 07 07.97696 20 55 56.05 +15 33 18.8 20.3 V A74 – Bergen-Enkheim Observatory MPS 337316
2010 07 07.99834 20 55 55.95 +15 33 18.8 20.3 V A74 – Bergen-Enkheim Observatory MPS 337316
2015 07 09.94738 21 26 50.65 +18 39 13.5 20.6 V A13 – Observatoire Naef, Ependes MPS 614606
2015 07 09.97158 21 26 50.55 +18 39 14.0 20.7 V A13 – Observatoire Naef, Ependes MPS 614606
2015 09 16.54161 21 21 22.43 +18 18 18.3 20.9 R D29 – Purple Mountain Observatory, XuYi Station MPS 626788
2015 09 16.55882 21 21 22.37 +18 18 17.8 21.1 R D29 – Purple Mountain Observatory, XuYi Station MPS 626788
2015 09 16.57603 21 21 22.27 +18 18 17.4 20.9 R D29 – Purple Mountain Observatory, XuYi Station MPS 626788
2016 08 06.28811 21 30 51.43 +19 13 25.0 20.2 R G80 – Sierra Remote Observatories, Auberry MPS 725026
2016 08 06.31085 21 30 51.31 +19 13 24.5 20.3 R G80 – Sierra Remote Observatories, Auberry MPS 725026
2016 08 06.33091 21 30 51.22 +19 13 24.6 20.4 R G80 – Sierra Remote Observatories, Auberry MPS 725026
2016 08 06.36029 21 30 51.07 +19 13 23.9 20.3 R G80 – Sierra Remote Observatories, Auberry MPS 725026
2017 11 16.764606 21 32 10.909 +18 37 30.92   275 – Non-geocentric Occultation Observation MPS 2115680
2018 08 14.66235 21 42 41.73 +20 17 38.8 20.8 R D29 – Purple Mountain Observatory, XuYi Station MPS 912213
2018 08 14.67649 21 42 41.67 +20 17 37.7 21.6 R D29 – Purple Mountain Observatory, XuYi Station MPS 912213
2019 06 01.407890 21 53 06.56 +20 28 51.3 20.57 r I41 – Palomar Mountain--ZTF MPS 1012032
2019 06 01.460580 21 53 06.54 +20 28 54.1 20.73 g I41 – Palomar Mountain--ZTF MPS 1012032
2019 08 10.50711 21 49 20.279 +20 50 31.39 20.9 w F51 – Pan-STARRS 1, Haleakala MPS 1021996
2019 08 10.51931 21 49 20.167 +20 50 31.12 21.0 w F51 – Pan-STARRS 1, Haleakala MPS 1021996
2019 08 10.53150 21 49 20.155 +20 50 31.14 21.0 w F51 – Pan-STARRS 1, Haleakala MPS 1021996
2019 08 10.54373 21 49 20.045 +20 50 30.75 20.9 w F51 – Pan-STARRS 1, Haleakala MPS 1021996
2020 07 12.38692 21 57 44.916 +21 20 47.24 20.5 w F52 – Pan-STARRS 2, Haleakala MPS 1224520
2020 07 12.41169 21 57 44.821 +21 20 47.73 20.5 w F52 – Pan-STARRS 2, Haleakala MPS 1224520
2020 07 12.42408 21 57 44.770 +21 20 47.69 20.5 w F52 – Pan-STARRS 2, Haleakala MPS 1224520
2020 07 17.41721 21 57 24.974 +21 21 47.91 20.6 w F52 – Pan-STARRS 2, Haleakala MPS 1227864
2020 07 17.43038 21 57 24.921 +21 21 48.12 20.5 w F52 – Pan-STARRS 2, Haleakala MPS 1227864
2020 07 17.44355 21 57 24.863 +21 21 48.22 20.6 w F52 – Pan-STARRS 2, Haleakala MPS 1227864
2020 07 17.45671 21 57 24.811 +21 21 48.40 20.4 w F52 – Pan-STARRS 2, Haleakala MPS 1227864
2020 07 19.42651 21 57 16.587 +21 22 05.51 20.3 w F52 – Pan-STARRS 2, Haleakala MPS 1224520
2020 07 19.43914 21 57 16.533 +21 22 05.64 20.3 w F52 – Pan-STARRS 2, Haleakala MPS 1224520
2020 07 19.45200 21 57 16.486 +21 22 05.82 20.4 w F52 – Pan-STARRS 2, Haleakala MPS 1224520
2020 07 19.46450 21 57 16.438 +21 22 05.87 20.5 w F52 – Pan-STARRS 2, Haleakala MPS 1224520
2020 07 25.39944 21 56 50.442 +21 22 34.87 20.4 w F51 – Pan-STARRS 1, Haleakala MPS 1224520
2020 07 25.41174 21 56 50.384 +21 22 34.89 20.5 w F51 – Pan-STARRS 1, Haleakala MPS 1224520
2020 07 25.42402 21 56 50.327 +21 22 35.02 20.5 w F51 – Pan-STARRS 1, Haleakala MPS 1224520
2020 07 25.43641 21 56 50.275 +21 22 35.00 20.5 w F51 – Pan-STARRS 1, Haleakala MPS 1224520
2020 08 13.36878 21 55 18.702 +21 20 21.82 20.6 w F52 – Pan-STARRS 2, Haleakala MPS 1238700
2020 08 13.38119 21 55 18.637 +21 20 21.72 20.6 w F52 – Pan-STARRS 2, Haleakala MPS 1238700
2020 08 13.39371 21 55 18.570 +21 20 21.46 20.6 w F52 – Pan-STARRS 2, Haleakala MPS 1238700
2020 08 22.31232 21 54 33.263 +21 17 23.59 20.4 w F52 – Pan-STARRS 2, Haleakala MPS 1238700
2020 08 22.32525 21 54 33.193 +21 17 23.32 20.5 w F52 – Pan-STARRS 2, Haleakala MPS 1238700
2020 08 22.33822 21 54 33.132 +21 17 22.97 20.4 w F52 – Pan-STARRS 2, Haleakala MPS 1238700
2020 08 22.35119 21 54 33.064 +21 17 22.64 20.5 w F52 – Pan-STARRS 2, Haleakala MPS 1238700
2020 09 07.53400 21 53 12.85 +21 09 10.2 21.1 R D29 – Purple Mountain Observatory, XuYi Station MPS 1248453
2020 09 07.54991 21 53 12.83 +21 09 10.1 21.0 R D29 – Purple Mountain Observatory, XuYi Station MPS 1248453
2020 09 07.56581 21 53 12.73 +21 09 10.2 21.5 R D29 – Purple Mountain Observatory, XuYi Station MPS 1248453
2020 09 18.23891 21 52 24.470 +21 02 04.56 20.4 w F52 – Pan-STARRS 2, Haleakala MPS 1283546
2020 09 18.25117 21 52 24.420 +21 02 04.00 20.4 w F52 – Pan-STARRS 2, Haleakala MPS 1283546
2020 09 18.26338 21 52 24.363 +21 02 03.42 20.4 w F52 – Pan-STARRS 2, Haleakala MPS 1283546
2020 09 18.27564 21 52 24.301 +21 02 03.07 20.6 w F52 – Pan-STARRS 2, Haleakala MPS 1283546
2020 12 17.21904 21 51 49.411 +19 54 59.33 20.5 w F51 – Pan-STARRS 1, Haleakala MPS 1327392
2020 12 17.23151 21 51 49.468 +19 54 59.01 20.6 w F51 – Pan-STARRS 1, Haleakala MPS 1327392
2020 12 17.24398 21 51 49.515 +19 54 58.82 20.7 w F51 – Pan-STARRS 1, Haleakala MPS 1327392
2020 12 17.25661 21 51 49.566 +19 54 58.65 20.5 w F51 – Pan-STARRS 1, Haleakala MPS 1327392
2021 07 30.588536 22 02 43.878 +21 52 06.44 20.36 i F51 – Pan-STARRS 1, Haleakala MPS 1441300
2021 07 30.589189 22 02 43.869 +21 52 06.31 20.31 i F51 – Pan-STARRS 1, Haleakala MPS 1441300
2021 07 30.595647 22 02 43.823 +21 52 06.18 20.24 i F51 – Pan-STARRS 1, Haleakala MPS 1441300
2021 07 30.596295 22 02 43.834 +21 52 06.17 20.28 i F51 – Pan-STARRS 1, Haleakala MPS 1441300
2021 07 30.602396 22 02 43.810 +21 52 06.27 20.08 i F51 – Pan-STARRS 1, Haleakala MPS 1441300
2021 07 30.603047 22 02 43.794 +21 52 06.36 20.32 i F51 – Pan-STARRS 1, Haleakala MPS 1441300
2021 07 30.609116 22 02 43.769 +21 52 06.16 20.46 i F51 – Pan-STARRS 1, Haleakala MPS 1441300
2021 07 30.609763 22 02 43.775 +21 52 06.23 20.23 i F51 – Pan-STARRS 1, Haleakala MPS 1441300
2021 08 26.523830 22 00 30.340 +21 45 42.00 20.23 i F51 – Pan-STARRS 1, Haleakala MPS 1459054
